This is the latest recevied weather packets stored in our database for station/object KD4MBW. If no packets are shown the sender has not sent any weather packets the latest 10 day(s).
| Time | Temp. | Humidity | Pressure | Rain* | Wind** | Luminosity | Snow |
|---|---|---|---|---|---|---|---|
| 1777556584 | 22.78° C | 90% | 1012.5 hPa | 0 mm | - | 223 W/m² | - |
| 1777556283 | 22.78° C | 91% | 1012.7 hPa | 0 mm | - | 250 W/m² | - |
| 1777555980 | 22.22° C | 92% | 1012.8 hPa | 0 mm | - | 197 W/m² | - |
| 1777555675 | 22.22° C | 92% | 1012.8 hPa | 0 mm | - | 175 W/m² | - |
| 1777555371 | 22.22° C | 92% | 1012.6 hPa | 0 mm | - | 205 W/m² | - |
| 1777555068 | 22.22° C | 94% | 1012.5 hPa | 0 mm | - | 139 W/m² | - |
| 1777554765 | 22.22° C | 95% | 1012.6 hPa | 0 mm | - | 115 W/m² | - |
| 1777554462 | 22.22° C | 95% | 1012.5 hPa | 0 mm | - | 81 W/m² | - |
| 1777554159 | 22.22° C | 96% | 1012.3 hPa | 0 mm | - | 77 W/m² | - |
| 1777553856 | 22.22° C | 97% | 1012.4 hPa | 0 mm | - | 31 W/m² | - |
| 1777553552 | 22.78° C | 97% | 1012.3 hPa | 0 mm | - | 35 W/m² | - |
| 1777553247 | 22.78° C | 97% | 1012.2 hPa | 0 mm | - | 15 W/m² | - |
| 1777552945 | 23.33° C | 97% | 1011.9 hPa | 0 mm | - | 16 W/m² | - |
| 1777552645 | 23.33° C | 96% | 1011.4 hPa | 0 mm | - | 25 W/m² | - |
| 1777552342 | 23.89° C | 95% | 1011.4 hPa | 0 mm | - | 46 W/m² | - |
| 1777552038 | 23.89° C | 96% | 1011.2 hPa | 0 mm | - | 66 W/m² | - |
| 1777551736 | 23.33° C | 96% | 1011.4 hPa | 0 mm | - | 60 W/m² | - |
| 1777551433 | 23.33° C | 96% | 1011.4 hPa | 0 mm | - | 52 W/m² | - |
| 1777551130 | 23.33° C | 96% | 1011.4 hPa | 0 mm | - | 61 W/m² | - |
| 1777550828 | 23.33° C | 96% | 1011.7 hPa | 0 mm | - | 45 W/m² | - |
| 1777550524 | 23.89° C | 96% | 1011.6 hPa | 0 mm | - | 28 W/m² | - |
| 1777550219 | 23.33° C | 96% | 1011.7 hPa | 0 mm | - | 30 W/m² | - |
| 1777549916 | 23.33° C | 97% | 1011.6 hPa | 0 mm | - | 42 W/m² | - |
| 1777549612 | 23.33° C | 97% | 1011.5 hPa | 0 mm | - | 32 W/m² | - |
| 1777549307 | 23.33° C | 98% | 1011.4 hPa | 0 mm | - | 25 W/m² | - |
* Rain latest hour (hover to see other rain measurements)
** Current wind speed in m/s (hover to see current wind gust speed)